When you browse on this site, cookies collect data to enhance your experience and personalize the content and advertising you see.
Visit our Privacy Policy to learn more. By continuing to use the site, you agree to this use of cookies and data.
  • In United Kingdom
  • List of Countries
  • For 7 days
  • Water Temperature
  • Weather Map
  • Weather Widgets
  • user-avatar
    Login

    Hourly Weather Brzegi

    Today, 28 May, Thursday

    Time Temperature Precipitation Wind Pressure Humidity
    00:00 +9°C° 0 mm 1 mps 740 mmHg 90%
    01:00 +9°C° 0 mm 0 mps 739 mmHg 91%
    02:00 +9°C° 0 mm 1 mps 739 mmHg 92%
    03:00 +9°C° 0 mm 1 mps 739 mmHg 92%
    04:00 +9°C° 0 mm 1 mps 738 mmHg 93%
    05:00 +10°C° 0.1 mm 1 mps 738 mmHg 90%
    06:00 +12°C° 0.1 mm 1 mps 738 mmHg 87%
    07:00 +13°C° 0.1 mm 1 mps 738 mmHg 85%
    08:00 +14°C° 0.5 mm 2 mps 738 mmHg 81%
    09:00 +15°C° 0.5 mm 2 mps 737 mmHg 77%
    10:00 +16°C° 0.5 mm 3 mps 737 mmHg 72%
    11:00 +16°C° 0.7 mm 3 mps 737 mmHg 72%
    12:00 +17°C° 0.7 mm 3 mps 737 mmHg 72%
    13:00 +17°C° 0.7 mm 3 mps 736 mmHg 72%
    14:00 +17°C° 0.7 mm 3 mps 736 mmHg 73%
    15:00 +16°C° 0.7 mm 3 mps 736 mmHg 75%
    16:00 +16°C° 0.7 mm 3 mps 736 mmHg 77%
    17:00 +14°C° 0.7 mm 3 mps 736 mmHg 80%
    18:00 +13°C° 0.7 mm 3 mps 736 mmHg 83%
    19:00 +12°C° 0.7 mm 3 mps 736 mmHg 86%
    20:00 +12°C° 0.4 mm 2 mps 736 mmHg 88%
    21:00 +12°C° 0.4 mm 2 mps 736 mmHg 90%
    22:00 +11°C° 0.4 mm 1 mps 736 mmHg 93%
    23:00 +11°C° 0.2 mm 1 mps 736 mmHg 93%

    Tomorrow, 29 May, Friday

    Time Temperature Precipitation Wind Pressure Humidity
    00:00 +11°C° 0.2 mm 1 mps 736 mmHg 94%
    01:00 +10°C° 0.2 mm 1 mps 736 mmHg 95%
    02:00 +10°C° 0.1 mm 2 mps 736 mmHg 96%
    03:00 +10°C° 0.1 mm 2 mps 736 mmHg 96%
    04:00 +10°C° 0.1 mm 2 mps 736 mmHg 96%
    05:00 +10°C° 0.1 mm 2 mps 736 mmHg 95%
    06:00 +10°C° 0.1 mm 2 mps 736 mmHg 95%
    07:00 +10°C° 0.1 mm 3 mps 736 mmHg 94%
    08:00 +10°C° 0.1 mm 3 mps 736 mmHg 92%
    09:00 +10°C° 0.1 mm 3 mps 736 mmHg 90%
    10:00 +10°C° 0.1 mm 3 mps 736 mmHg 89%
    11:00 +10°C° 0.1 mm 2 mps 736 mmHg 84%
    12:00 +12°C° 0.1 mm 2 mps 736 mmHg 78%
    13:00 +13°C° 0.1 mm 2 mps 736 mmHg 73%
    14:00 +13°C° 0.1 mm 3 mps 736 mmHg 69%
    15:00 +14°C° 0.1 mm 3 mps 735 mmHg 65%
    16:00 +15°C° 0.1 mm 4 mps 735 mmHg 60%
    17:00 +14°C° 0.1 mm 4 mps 735 mmHg 66%
    18:00 +13°C° 0.1 mm 3 mps 735 mmHg 72%
    19:00 +11°C° 0.1 mm 3 mps 734 mmHg 78%
    20:00 +10°C° 0.1 mm 2 mps 735 mmHg 81%
    21:00 +10°C° 0.1 mm 2 mps 735 mmHg 84%
    22:00 +9°C° 0.1 mm 2 mps 735 mmHg 87%
    23:00 +8°C° 0 mm 2 mps 735 mmHg 88%

    Day after tomorrow, 30 May, Saturday

    Time Temperature Precipitation Wind Pressure Humidity
    00:00 +9°C° 0 mm 1 mps 735 mmHg 89%
    01:00 +9°C° 0 mm 1 mps 735 mmHg 89%
    02:00 +8°C° 0 mm 1 mps 735 mmHg 91%
    03:00 +8°C° 0 mm 1 mps 734 mmHg 92%
    04:00 +7°C° 0 mm 1 mps 734 mmHg 94%
    05:00 +7°C° 0 mm 2 mps 734 mmHg 92%
    06:00 +7°C° 0 mm 2 mps 734 mmHg 90%
    07:00 +8°C° 0 mm 2 mps 734 mmHg 88%
    08:00 +8°C° 0 mm 2 mps 734 mmHg 86%
    09:00 +9°C° 0 mm 3 mps 734 mmHg 83%
    10:00 +9°C° 0 mm 3 mps 734 mmHg 81%
    11:00 +10°C° 0 mm 3 mps 734 mmHg 79%
    12:00 +10°C° 0 mm 2 mps 734 mmHg 78%
    13:00 +12°C° 0 mm 2 mps 733 mmHg 76%
    14:00 +10°C° 0.2 mm 2 mps 733 mmHg 81%
    15:00 +10°C° 0.2 mm 2 mps 733 mmHg 85%
    16:00 +9°C° 0.2 mm 2 mps 733 mmHg 90%
    17:00 +9°C° 0.1 mm 2 mps 733 mmHg 91%
    18:00 +9°C° 0.1 mm 2 mps 732 mmHg 92%
    19:00 +9°C° 0.1 mm 2 mps 732 mmHg 93%
    20:00 +9°C° 0.1 mm 2 mps 732 mmHg 94%
    21:00 +9°C° 0.1 mm 2 mps 732 mmHg 95%
    22:00 +8°C° 0.1 mm 2 mps 732 mmHg 96%
    23:00 +8°C° 0.1 mm 2 mps 731 mmHg 96%

    31 May, Sunday

    Time Temperature Precipitation Wind Pressure Humidity
    00:00 +8°C° 0.1 mm 3 mps 731 mmHg 96%
    01:00 +8°C° 0.1 mm 3 mps 730 mmHg 97%
    02:00 +8°C° 1 mm 3 mps 730 mmHg 97%
    03:00 +9°C° 1 mm 3 mps 730 mmHg 97%
    04:00 +9°C° 1 mm 3 mps 729 mmHg 98%
    05:00 +9°C° 1.6 mm 3 mps 729 mmHg 98%
    06:00 +9°C° 1.6 mm 3 mps 729 mmHg 98%
    07:00 +9°C° 1.6 mm 3 mps 729 mmHg 98%
    08:00 +10°C° 2.9 mm 3 mps 729 mmHg 98%
    09:00 +10°C° 2.9 mm 3 mps 729 mmHg 98%
    10:00 +10°C° 2.9 mm 2 mps 729 mmHg 98%
    11:00 +10°C° 1.7 mm 2 mps 729 mmHg 97%
    12:00 +12°C° 1.7 mm 2 mps 729 mmHg 97%
    13:00 +12°C° 1.7 mm 2 mps 729 mmHg 97%
    14:00 +12°C° 0.7 mm 2 mps 729 mmHg 97%
    15:00 +13°C° 0.7 mm 2 mps 730 mmHg 97%
    16:00 +13°C° 0.7 mm 2 mps 730 mmHg 97%
    17:00 +13°C° 0.8 mm 2 mps 730 mmHg 97%
    18:00 +14°C° 0.8 mm 2 mps 730 mmHg 97%
    19:00 +14°C° 0.8 mm 1 mps 730 mmHg 97%
    20:00 +14°C° 0.5 mm 2 mps 730 mmHg 97%
    21:00 +14°C° 0.5 mm 2 mps 731 mmHg 97%
    22:00 +13°C° 0.5 mm 3 mps 731 mmHg 97%
    23:00 +13°C° 0.1 mm 3 mps 731 mmHg 97%

    1 June, Monday

    Time Temperature Precipitation Wind Pressure Humidity
    00:00 +13°C° 0.1 mm 3 mps 731 mmHg 97%
    01:00 +13°C° 0.1 mm 4 mps 731 mmHg 97%
    02:00 +12°C° 0.1 mm 4 mps 731 mmHg 97%
    03:00 +12°C° 0.1 mm 3 mps 731 mmHg 97%
    04:00 +12°C° 0.1 mm 3 mps 732 mmHg 97%
    05:00 +12°C° 0 mm 3 mps 732 mmHg 95%
    06:00 +12°C° 0 mm 4 mps 732 mmHg 94%
    07:00 +12°C° 0 mm 4 mps 732 mmHg 93%
    08:00 +12°C° 0.1 mm 4 mps 733 mmHg 92%
    09:00 +12°C° 0.1 mm 4 mps 733 mmHg 91%
    10:00 +13°C° 0.1 mm 3 mps 733 mmHg 90%
    11:00 +13°C° 0.2 mm 4 mps 733 mmHg 88%
    12:00 +14°C° 0.2 mm 4 mps 733 mmHg 87%
    13:00 +14°C° 0.2 mm 4 mps 733 mmHg 86%
    14:00 +14°C° 0.4 mm 4 mps 733 mmHg 86%
    15:00 +14°C° 0.4 mm 4 mps 733 mmHg 86%
    16:00 +14°C° 0.4 mm 3 mps 733 mmHg 86%
    17:00 +14°C° 0.1 mm 3 mps 733 mmHg 88%
    18:00 +13°C° 0.1 mm 3 mps 733 mmHg 89%
    19:00 +14°C° 0.1 mm 2 mps 733 mmHg 91%
    20:00 +13°C° 0 mm 2 mps 733 mmHg 92%
    21:00 +12°C° 0 mm 2 mps 733 mmHg 93%
    22:00 +10°C° 0 mm 2 mps 734 mmHg 94%
    23:00 +10°C° 0 mm 2 mps 733 mmHg 95%

    2 June, Tuesday

    Time Temperature Precipitation Wind Pressure Humidity
    00:00 +10°C° 0 mm 2 mps 733 mmHg 95%
    01:00 +9°C° 0 mm 2 mps 733 mmHg 96%
    02:00 +10°C° 0 mm 2 mps 733 mmHg 96%
    03:00 +10°C° 0 mm 2 mps 733 mmHg 96%
    04:00 +10°C° 0 mm 2 mps 733 mmHg 96%
    05:00 +10°C° 0 mm 2 mps 733 mmHg 95%
    06:00 +11°C° 0 mm 3 mps 733 mmHg 93%
    07:00 +12°C° 0 mm 3 mps 733 mmHg 92%
    08:00 +13°C° 0.1 mm 3 mps 734 mmHg 88%
    09:00 +14°C° 0.1 mm 4 mps 734 mmHg 85%
    10:00 +15°C° 0.1 mm 4 mps 734 mmHg 81%
    11:00 +17°C° 0.2 mm 4 mps 734 mmHg 78%
    12:00 +17°C° 0.2 mm 4 mps 734 mmHg 75%
    13:00 +17°C° 0.2 mm 5 mps 733 mmHg 72%
    14:00 +17°C° 0.2 mm 5 mps 733 mmHg 72%
    15:00 +17°C° 0.2 mm 5 mps 733 mmHg 72%
    16:00 +19°C° 0.2 mm 5 mps 733 mmHg 71%
    17:00 +17°C° 0.1 mm 4 mps 733 mmHg 76%
    18:00 +15°C° 0.1 mm 4 mps 733 mmHg 80%
    19:00 +14°C° 0.1 mm 3 mps 733 mmHg 84%
    20:00 +13°C° 0 mm 3 mps 733 mmHg 87%
    21:00 +12°C° 0 mm 3 mps 733 mmHg 89%
    22:00 +12°C° 0 mm 2 mps 733 mmHg 91%
    23:00 +12°C° 0 mm 2 mps 733 mmHg 92%
    Show more